TimeEST,TemperatureF,Dew PointF,Humidity,Sea Level PressureIn,VisibilityMPH,Wind Direction,Wind SpeedMPH,Gust SpeedMPH,PrecipitationIn,Events,Conditions,WindDirDegrees,DateUTC
12:53 AM,32.0,27.0,82,30.19,10.0,Calm,Calm,-,N/A,,Overcast,0,2013-01-06 05:53:00
1:53 AM,32.0,28.9,88,30.17,10.0,Calm,Calm,-,N/A,,Overcast,0,2013-01-06 06:53:00
2:53 AM,35.1,28.9,78,30.16,10.0,SSW,5.8,-,N/A,,Overcast,200,2013-01-06 07:53:00
3:53 AM,37.0,28.9,73,30.14,10.0,SSW,10.4,-,N/A,,Overcast,210,2013-01-06 08:53:00
4:53 AM,37.0,28.9,73,30.12,10.0,SW,8.1,-,N/A,,Overcast,220,2013-01-06 09:53:00
5:53 AM,37.0,28.9,73,30.11,10.0,SSW,9.2,-,N/A,,Overcast,210,2013-01-06 10:53:00
6:53 AM,37.0,30.0,76,30.11,10.0,SSW,9.2,-,N/A,,Overcast,200,2013-01-06 11:53:00
7:53 AM,37.0,30.0,76,30.12,10.0,SSW,8.1,-,N/A,,Overcast,210,2013-01-06 12:53:00
8:53 AM,37.9,30.0,73,30.12,10.0,SSW,10.4,-,N/A,,Overcast,210,2013-01-06 13:53:00
9:53 AM,39.0,30.9,73,30.12,10.0,SSW,15.0,-,N/A,,Overcast,200,2013-01-06 14:53:00
10:53 AM,39.9,32.0,73,30.12,10.0,SSW,13.8,-,N/A,,Overcast,210,2013-01-06 15:53:00
11:53 AM,41.0,32.0,70,30.08,10.0,SW,15.0,-,N/A,,Overcast,220,2013-01-06 16:53:00
12:17 PM,39.2,32.0,75,30.06,10.0,SW,10.4,-,N/A,,Overcast,220,2013-01-06 17:17:00
12:53 PM,39.9,33.1,77,30.07,10.0,WSW,10.4,-,N/A,,Overcast,240,2013-01-06 17:53:00
1:53 PM,39.0,30.9,73,30.08,10.0,WSW,11.5,23.0,0.00,Rain,Light Rain,250,2013-01-06 18:53:00
2:53 PM,35.1,28.9,78,30.12,7.0,West,17.3,25.3,0.00,,Overcast,280,2013-01-06 19:53:00
3:53 PM,34.0,25.0,70,30.17,10.0,WNW,12.7,21.9,N/A,,Overcast,290,2013-01-06 20:53:00
4:53 PM,33.1,24.1,70,30.22,10.0,WNW,16.1,19.6,N/A,,Overcast,300,2013-01-06 21:53:00
5:53 PM,33.1,24.1,70,30.25,10.0,Variable,6.9,20.7,N/A,,Overcast,0,2013-01-06 22:53:00
6:53 PM,30.9,21.9,69,30.29,9.0,West,13.8,23.0,N/A,,Overcast,280,2013-01-06 23:53:00
7:39 PM,30.2,21.2,69,30.30,9.0,West,10.4,-,N/A,,Overcast,280,2013-01-07 00:39:00
7:53 PM,30.0,21.0,69,30.33,9.0,WNW,8.1,-,N/A,,Overcast,290,2013-01-07 00:53:00
8:16 PM,30.2,21.2,69,30.32,9.0,West,10.4,-,N/A,,Overcast,280,2013-01-07 01:16:00
8:53 PM,28.9,21.0,72,30.35,8.0,WNW,9.2,18.4,N/A,,Overcast,290,2013-01-07 01:53:00
9:11 PM,28.4,21.2,74,30.34,7.0,WNW,9.2,-,N/A,,Overcast,300,2013-01-07 02:11:00
9:38 PM,28.4,21.2,74,30.35,7.0,Variable,5.8,-,N/A,,Overcast,0,2013-01-07 02:38:00
9:53 PM,28.9,21.0,72,30.36,7.0,NW,6.9,-,N/A,,Overcast,320,2013-01-07 02:53:00
10:07 PM,28.4,21.2,74,30.36,7.0,WNW,6.9,-,N/A,,Overcast,290,2013-01-07 03:07:00
10:53 PM,28.9,21.9,75,30.39,7.0,West,4.6,-,N/A,,Overcast,270,2013-01-07 03:53:00
11:07 PM,30.2,21.2,69,30.38,7.0,West,5.8,-,N/A,,Overcast,270,2013-01-07 04:07:00
11:17 PM,30.2,21.2,69,30.38,7.0,Calm,Calm,-,N/A,,Overcast,0,2013-01-07 04:17:00
11:53 PM,30.0,21.9,72,30.40,7.0,West,6.9,-,N/A,,Overcast,280,2013-01-07 04:53:00